パンスターズ彗星

C/2022 N2 ( PanSTARRS )

English version
Home page
Updated on February 10, 2025

---------------------------------------------------------------------

・ プロフィール

発見日 2022年7月4日
発見光度 20.6等
発見者 Pan-STARRS 2 telescope (Haleakala)

・ 写真集

・ 軌道要素

Epoch 2024 Oct. 17.0 TT = JDT 2460600.5
T 2025 July 31.69483 TT                                 Rudenko
q   3.8256346            (2000.0)            P               Q
z  -0.0009187      Peri.   75.37930     +0.81506998     -0.57603849
 +/-0.0000019      Node   319.74041     +0.48778328     +0.74001315
e   1.0035147      Incl.    5.50285     +0.31261542     +0.34721780
>From 774 observations 2022 June 2-2024 Aug. 31, mean residual 0".4.

・ 星図

・ 光度変化

        m1 = 5.0 + 5 logΔ + 10.0 log r

---------------------------------------------------------------------

軌道要素はM.P.E.C. 2024-R10に掲載されたものです。
星図はステラナビゲータ Ver.10 (アストロアーツ) で作成したものです。
光度グラフはComet for Windowsで作成したものです。

---------------------------------------------------------------------

Copyright(C) Seiichi Yoshida (comet@aerith.net). All rights reserved.